TimeCDT,TemperatureF,Dew PointF,Humidity,Sea Level PressureIn,VisibilityMPH,Wind Direction,Wind SpeedMPH,Gust SpeedMPH,PrecipitationIn,Events,Conditions,WindDirDegrees,DateUTC
12:15 AM,37.4,21.2,52,29.89,10.0,SSW,10.4,-,N/A,,Clear,200,2012-10-08 05:15:00
12:35 AM,37.4,23.0,56,29.89,10.0,SSW,10.4,-,N/A,,Clear,210,2012-10-08 05:35:00
12:55 AM,37.4,23.0,56,29.89,10.0,SSW,10.4,-,N/A,,Clear,200,2012-10-08 05:55:00
1:15 AM,37.4,23.0,56,29.89,10.0,SSW,10.4,-,N/A,,Clear,200,2012-10-08 06:15:00
1:35 AM,37.4,24.8,60,29.89,10.0,SSW,8.1,-,N/A,,Clear,210,2012-10-08 06:35:00
1:55 AM,37.4,24.8,60,29.88,10.0,SSW,6.9,-,N/A,,Clear,210,2012-10-08 06:55:00
2:15 AM,37.4,24.8,60,29.88,10.0,SSW,5.8,-,N/A,,Clear,200,2012-10-08 07:15:00
2:35 AM,35.6,24.8,65,29.88,10.0,SSW,4.6,-,N/A,,Clear,200,2012-10-08 07:35:00
2:55 AM,35.6,24.8,65,29.87,10.0,South,4.6,-,N/A,,Clear,190,2012-10-08 07:55:00
3:15 AM,35.6,24.8,65,29.87,10.0,South,4.6,-,N/A,,Clear,180,2012-10-08 08:15:00
3:35 AM,35.6,24.8,65,29.86,10.0,South,3.5,-,N/A,,Clear,180,2012-10-08 08:35:00
3:55 AM,37.4,26.6,65,29.86,10.0,South,3.5,-,N/A,,Clear,190,2012-10-08 08:55:00
4:15 AM,37.4,26.6,65,29.85,10.0,South,4.6,-,N/A,,Clear,190,2012-10-08 09:15:00
4:35 AM,37.4,26.6,65,29.85,10.0,South,4.6,-,N/A,,Clear,190,2012-10-08 09:35:00
4:55 AM,37.4,28.4,70,29.85,10.0,South,6.9,-,N/A,,Clear,180,2012-10-08 09:55:00
5:15 AM,39.2,28.4,65,29.85,10.0,South,5.8,-,N/A,,Scattered Clouds,180,2012-10-08 10:15:00
5:35 AM,39.2,28.4,65,29.84,10.0,South,5.8,-,N/A,,Mostly Cloudy,190,2012-10-08 10:35:00
5:55 AM,41.0,28.4,61,29.84,10.0,South,8.1,-,N/A,,Scattered Clouds,190,2012-10-08 10:55:00
6:15 AM,41.0,28.4,61,29.84,10.0,South,8.1,-,N/A,,Scattered Clouds,190,2012-10-08 11:15:00
6:35 AM,41.0,28.4,61,29.84,10.0,South,6.9,-,N/A,,Scattered Clouds,190,2012-10-08 11:35:00
6:55 AM,41.0,28.4,61,29.83,10.0,South,8.1,-,N/A,,Scattered Clouds,190,2012-10-08 11:55:00
7:15 AM,41.0,28.4,61,29.82,10.0,South,9.2,-,N/A,,Scattered Clouds,190,2012-10-08 12:15:00
7:35 AM,41.0,28.4,61,29.82,10.0,South,8.1,-,N/A,,Overcast,190,2012-10-08 12:35:00
7:55 AM,42.8,28.4,57,29.81,10.0,South,10.4,-,N/A,,Mostly Cloudy,190,2012-10-08 12:55:00
8:15 AM,42.8,30.2,61,29.81,10.0,South,11.5,-,N/A,,Scattered Clouds,190,2012-10-08 13:15:00
8:35 AM,42.8,30.2,61,29.81,10.0,SSW,11.5,-,N/A,,Clear,200,2012-10-08 13:35:00
8:55 AM,44.6,30.2,57,29.81,10.0,SSW,13.8,-,N/A,,Clear,200,2012-10-08 13:55:00
9:15 AM,44.6,30.2,57,29.80,10.0,SSW,12.7,-,N/A,,Clear,200,2012-10-08 14:15:00
9:35 AM,46.4,28.4,50,29.80,10.0,South,18.4,-,N/A,,Clear,190,2012-10-08 14:35:00
9:55 AM,48.2,28.4,46,29.79,10.0,SSW,17.3,-,N/A,,Clear,200,2012-10-08 14:55:00
10:15 AM,48.2,28.4,46,29.80,10.0,SSW,16.1,20.7,N/A,,Clear,210,2012-10-08 15:15:00
10:35 AM,50.0,28.4,43,29.79,10.0,SSW,16.1,23.0,N/A,,Clear,210,2012-10-08 15:35:00
10:55 AM,53.6,28.4,38,29.78,10.0,SSW,20.7,-,N/A,,Clear,200,2012-10-08 15:55:00
11:15 AM,55.4,26.6,33,29.77,10.0,SW,18.4,21.9,N/A,,Clear,220,2012-10-08 16:15:00
11:35 AM,57.2,26.6,31,29.76,10.0,SSW,19.6,24.2,N/A,,Clear,210,2012-10-08 16:35:00
11:55 AM,60.8,26.6,27,29.75,10.0,SSW,20.7,-,N/A,,Clear,200,2012-10-08 16:55:00
12:15 PM,62.6,24.8,24,29.75,10.0,SSW,19.6,26.5,N/A,,Clear,200,2012-10-08 17:15:00
12:35 PM,64.4,23.0,21,29.75,10.0,SSW,19.6,26.5,N/A,,Scattered Clouds,210,2012-10-08 17:35:00
12:55 PM,64.4,23.0,21,29.73,10.0,SW,21.9,27.6,N/A,,Scattered Clouds,220,2012-10-08 17:55:00
1:15 PM,66.2,21.2,18,29.72,10.0,SSW,21.9,27.6,N/A,,Scattered Clouds,210,2012-10-08 18:15:00
1:35 PM,69.8,21.2,16,29.72,10.0,SW,23.0,31.1,N/A,,Clear,220,2012-10-08 18:35:00
1:55 PM,68.0,21.2,17,29.71,10.0,SW,24.2,31.1,N/A,,Clear,220,2012-10-08 18:55:00
2:15 PM,68.0,21.2,17,29.70,10.0,SW,24.2,29.9,N/A,,Clear,230,2012-10-08 19:15:00
2:35 PM,69.8,21.2,16,29.69,10.0,SW,24.2,29.9,N/A,,Clear,230,2012-10-08 19:35:00
2:55 PM,71.6,19.4,14,29.69,10.0,WSW,20.7,29.9,N/A,,Scattered Clouds,240,2012-10-08 19:55:00
3:15 PM,71.6,21.2,15,29.69,10.0,SW,23.0,32.2,N/A,,Mostly Cloudy,230,2012-10-08 20:15:00
3:35 PM,71.6,23.0,16,29.68,10.0,West,23.0,29.9,N/A,,Mostly Cloudy,260,2012-10-08 20:35:00
3:55 PM,71.6,24.8,17,29.69,10.0,West,20.7,33.4,N/A,,Scattered Clouds,260,2012-10-08 20:55:00
4:15 PM,71.6,26.6,19,29.69,10.0,West,21.9,27.6,N/A,,Scattered Clouds,280,2012-10-08 21:15:00
4:35 PM,71.6,30.2,22,29.69,10.0,West,19.6,26.5,N/A,,Clear,270,2012-10-08 21:35:00
4:55 PM,69.8,30.2,23,29.70,10.0,West,16.1,21.9,N/A,,Clear,260,2012-10-08 21:55:00
5:15 PM,69.8,32.0,25,29.70,10.0,West,18.4,25.3,N/A,,Clear,280,2012-10-08 22:15:00
5:35 PM,68.0,33.8,28,29.71,10.0,West,18.4,21.9,N/A,,Clear,280,2012-10-08 22:35:00
5:55 PM,66.2,32.0,28,29.71,10.0,West,15.0,20.7,N/A,,Clear,280,2012-10-08 22:55:00
6:15 PM,66.2,33.8,30,29.71,10.0,WNW,10.4,-,N/A,,Clear,300,2012-10-08 23:15:00
6:35 PM,64.4,35.6,34,29.72,7.0,WNW,11.5,-,N/A,,Mostly Cloudy,300,2012-10-08 23:35:00
6:55 PM,64.4,35.6,34,29.73,10.0,WNW,12.7,-,N/A,,Overcast,300,2012-10-08 23:55:00
7:15 PM,64.4,35.6,34,29.75,10.0,WNW,12.7,-,N/A,,Overcast,300,2012-10-09 00:15:00
7:35 PM,62.6,39.2,42,29.76,10.0,NW,10.4,-,N/A,Rain,Light Rain,310,2012-10-09 00:35:00
7:55 PM,62.6,39.2,42,29.77,10.0,WNW,15.0,-,N/A,Rain,Light Rain,290,2012-10-09 00:55:00
8:15 PM,62.6,39.2,42,29.76,10.0,NNW,17.3,21.9,N/A,Rain,Light Rain,330,2012-10-09 01:15:00
8:35 PM,60.8,39.2,45,29.77,10.0,NNW,12.7,17.3,N/A,,Overcast,330,2012-10-09 01:35:00
8:55 PM,60.8,39.2,45,29.78,10.0,North,13.8,17.3,N/A,,Mostly Cloudy,350,2012-10-09 01:55:00
9:15 PM,57.2,42.8,59,29.79,3.0,NNW,6.9,-,N/A,Rain,Light Rain,340,2012-10-09 02:15:00
9:35 PM,57.2,42.8,59,29.79,10.0,North,5.8,-,N/A,,Overcast,350,2012-10-09 02:35:00
9:55 PM,57.2,42.8,59,29.80,10.0,North,3.5,-,N/A,Rain,Light Rain,360,2012-10-09 02:55:00
10:15 PM,57.2,41.0,55,29.81,10.0,Calm,Calm,-,N/A,,Overcast,0,2012-10-09 03:15:00
10:55 PM,55.4,44.6,67,29.81,10.0,Calm,Calm,-,N/A,,Overcast,0,2012-10-09 03:55:00
11:35 PM,53.6,44.6,72,29.79,10.0,Calm,Calm,-,N/A,Rain,Light Rain,0,2012-10-09 04:35:00
11:55 PM,51.8,44.6,76,29.79,10.0,Calm,Calm,-,N/A,Rain,Light Rain,0,2012-10-09 04:55:00